PRIVATE WETTERSTATION BILLIGHEIM-ALLFELD                       ZURCK
Wetterdaten: Donnerstag, 23.02.2017
Datum Zeit Temp. A. Temp. A. min Temp. A. max Feuchte A. Luftdruck Regen Wind Richtung Richtung Sonnenschein ET Solar Taupunkt Windchill Windben Empfang
23.02.2017 00:00 8,0 C 8,0 C 8,1 C 88 % 1010,5 hPa 0,0 l/m 16,1 km/h (3 Bft) SW 225 0 min 0,025 mm 0 W/m 6,1 C 2,2 C 32,2 km/h (5 Bft) 99 %
23.02.2017 00:10 7,9 C 7,9 C 8,0 C 88 % 1010,6 hPa 0,0 l/m 19,3 km/h (3 Bft) SW 225 0 min 0,000 mm 0 W/m 6,0 C 0,8 C 49,9 km/h (6 Bft) 100 %
23.02.2017 00:20 7,9 C 7,9 C 7,9 C 88 % 1010,6 hPa 0,0 l/m 19,3 km/h (3 Bft) SW 225 0 min 0,000 mm 0 W/m 6,0 C 0,8 C 33,8 km/h (5 Bft) 100 %
23.02.2017 00:30 7,9 C 7,9 C 7,9 C 88 % 1010,5 hPa 0,0 l/m 19,3 km/h (3 Bft) SW 225 0 min 0,000 mm 0 W/m 6,0 C 0,8 C 40,2 km/h (6 Bft) 100 %
23.02.2017 00:40 7,9 C 7,9 C 7,9 C 88 % 1010,6 hPa 0,0 l/m 20,9 km/h (4 Bft) W-SW 247 0 min 0,000 mm 0 W/m 6,0 C 0,3 C 43,5 km/h (6 Bft) 100 %
23.02.2017 00:50 7,8 C 7,8 C 7,9 C 88 % 1010,5 hPa 0,0 l/m 16,1 km/h (3 Bft) W-SW 247 0 min 0,000 mm 0 W/m 5,9 C 2,0 C 49,9 km/h (6 Bft) 100 %
23.02.2017 01:00 7,8 C 7,8 C 7,8 C 88 % 1010,6 hPa 0,0 l/m 17,7 km/h (3 Bft) W-SW 247 0 min 0,025 mm 0 W/m 5,9 C 1,3 C 48,3 km/h (6 Bft) 100 %
23.02.2017 01:10 7,8 C 7,8 C 7,8 C 88 % 1010,5 hPa 0,0 l/m 14,5 km/h (3 Bft) SW 225 0 min 0,000 mm 0 W/m 5,9 C 2,7 C 32,2 km/h (5 Bft) 100 %
23.02.2017 01:20 7,8 C 7,8 C 7,8 C 88 % 1010,5 hPa 0,0 l/m 19,3 km/h (3 Bft) SW 225 0 min 0,000 mm 0 W/m 5,9 C 0,7 C 40,2 km/h (6 Bft) 100 %
23.02.2017 01:30 7,8 C 7,8 C 7,8 C 88 % 1010,4 hPa 0,0 l/m 22,5 km/h (4 Bft) SW 225 0 min 0,000 mm 0 W/m 5,9 C -0,4 C 43,5 km/h (6 Bft) 100 %
23.02.2017 01:40 7,8 C 7,8 C 7,8 C 88 % 1010,4 hPa 0,0 l/m 17,7 km/h (3 Bft) SW 225 0 min 0,000 mm 0 W/m 5,9 C 1,3 C 37,0 km/h (5 Bft) 100 %
23.02.2017 01:50 7,7 C 7,7 C 7,8 C 88 % 1010,4 hPa 0,0 l/m 20,9 km/h (4 Bft) SW 225 0 min 0,000 mm 0 W/m 5,8 C 0,0 C 37,0 km/h (5 Bft) 100 %
23.02.2017 02:00 7,7 C 7,7 C 7,8 C 88 % 1010,4 hPa 0,0 l/m 17,7 km/h (3 Bft) SW 225 0 min 0,025 mm 0 W/m 5,8 C 1,2 C 38,6 km/h (5 Bft) 100 %
23.02.2017 02:10 7,7 C 7,7 C 7,7 C 88 % 1010,3 hPa 0,0 l/m 17,7 km/h (3 Bft) SW 225 0 min 0,000 mm 0 W/m 5,8 C 1,2 C 33,8 km/h (5 Bft) 100 %
23.02.2017 02:20 7,7 C 7,7 C 7,7 C 88 % 1010,3 hPa 0,0 l/m 19,3 km/h (3 Bft) SW 225 0 min 0,000 mm 0 W/m 5,8 C 0,6 C 35,4 km/h (5 Bft) 100 %
23.02.2017 02:30 7,7 C 7,7 C 7,7 C 88 % 1010,2 hPa 0,0 l/m 14,5 km/h (3 Bft) SW 225 0 min 0,000 mm 0 W/m 5,8 C 2,6 C 35,4 km/h (5 Bft) 100 %
23.02.2017 02:40 7,7 C 7,7 C 7,7 C 88 % 1010,1 hPa 0,0 l/m 17,7 km/h (3 Bft) SW 225 0 min 0,000 mm 0 W/m 5,8 C 1,2 C 32,2 km/h (5 Bft) 100 %
23.02.2017 02:50 7,7 C 7,7 C 7,7 C 88 % 1010,0 hPa 0,0 l/m 16,1 km/h (3 Bft) SW 225 0 min 0,000 mm 0 W/m 5,8 C 1,9 C 40,2 km/h (6 Bft) 100 %
23.02.2017 03:00 7,7 C 7,7 C 7,7 C 88 % 1009,9 hPa 0,0 l/m 14,5 km/h (3 Bft) SW 225 0 min 0,025 mm 0 W/m 5,8 C 2,6 C 35,4 km/h (5 Bft) 100 %
23.02.2017 03:10 7,7 C 7,7 C 7,7 C 88 % 1009,7 hPa 0,0 l/m 16,1 km/h (3 Bft) SW 225 0 min 0,000 mm 0 W/m 5,8 C 1,9 C 37,0 km/h (5 Bft) 100 %
23.02.2017 03:20 7,7 C 7,7 C 7,7 C 88 % 1009,7 hPa 0,0 l/m 16,1 km/h (3 Bft) SW 225 0 min 0,000 mm 0 W/m 5,8 C 1,9 C 32,2 km/h (5 Bft) 100 %
23.02.2017 03:30 7,7 C 7,7 C 7,7 C 88 % 1009,6 hPa 0,0 l/m 16,1 km/h (3 Bft) SW 225 0 min 0,000 mm 0 W/m 5,8 C 1,9 C 29,0 km/h (5 Bft) 100 %
23.02.2017 03:40 7,7 C 7,7 C 7,7 C 88 % 1009,5 hPa 0,0 l/m 20,9 km/h (4 Bft) SW 225 0 min 0,000 mm 0 W/m 5,8 C 0,0 C 37,0 km/h (5 Bft) 100 %
23.02.2017 03:50 7,7 C 7,7 C 7,7 C 88 % 1009,5 hPa 0,0 l/m 16,1 km/h (3 Bft) SW 225 0 min 0,000 mm 0 W/m 5,8 C 1,9 C 33,8 km/h (5 Bft) 100 %
23.02.2017 04:00 7,8 C 7,7 C 7,8 C 88 % 1009,4 hPa 0,0 l/m 16,1 km/h (3 Bft) W-SW 247 0 min 0,025 mm 0 W/m 5,9 C 2,0 C 40,2 km/h (6 Bft) 100 %
23.02.2017 04:10 7,8 C 7,7 C 7,8 C 87 % 1009,4 hPa 0,0 l/m 16,1 km/h (3 Bft) W-SW 247 0 min 0,000 mm 0 W/m 5,8 C 2,0 C 37,0 km/h (5 Bft) 100 %
23.02.2017 04:20 7,8 C 7,8 C 7,8 C 87 % 1009,5 hPa 0,0 l/m 16,1 km/h (3 Bft) W-SW 247 0 min 0,000 mm 0 W/m 5,8 C 2,0 C 32,2 km/h (5 Bft) 100 %
23.02.2017 04:30 7,8 C 7,8 C 7,8 C 87 % 1009,3 hPa 0,0 l/m 17,7 km/h (3 Bft) SW 225 0 min 0,000 mm 0 W/m 5,8 C 1,3 C 33,8 km/h (5 Bft) 100 %
23.02.2017 04:40 7,8 C 7,8 C 7,8 C 87 % 1009,1 hPa 0,0 l/m 17,7 km/h (3 Bft) SW 225 0 min 0,000 mm 0 W/m 5,8 C 1,3 C 33,8 km/h (5 Bft) 100 %
23.02.2017 04:50 7,8 C 7,8 C 7,8 C 87 % 1008,9 hPa 0,0 l/m 20,9 km/h (4 Bft) SW 225 0 min 0,000 mm 0 W/m 5,8 C 0,1 C 40,2 km/h (6 Bft) 100 %
23.02.2017 05:00 7,8 C 7,8 C 7,8 C 87 % 1009,0 hPa 0,0 l/m 20,9 km/h (4 Bft) SW 225 0 min 0,025 mm 0 W/m 5,8 C 0,1 C 41,8 km/h (6 Bft) 100 %
23.02.2017 05:10 7,7 C 7,7 C 7,8 C 87 % 1008,8 hPa 0,0 l/m 19,3 km/h (3 Bft) SW 225 0 min 0,000 mm 0 W/m 5,7 C 0,6 C 37,0 km/h (5 Bft) 100 %
23.02.2017 05:20 7,7 C 7,7 C 7,7 C 87 % 1008,6 hPa 0,0 l/m 17,7 km/h (3 Bft) SW 225 0 min 0,000 mm 0 W/m 5,7 C 1,2 C 33,8 km/h (5 Bft) 100 %
23.02.2017 05:30 7,7 C 7,7 C 7,7 C 87 % 1008,7 hPa 0,0 l/m 17,7 km/h (3 Bft) SW 225 0 min 0,000 mm 0 W/m 5,7 C 1,2 C 37,0 km/h (5 Bft) 100 %
23.02.2017 05:40 7,7 C 7,7 C 7,7 C 87 % 1008,7 hPa 0,0 l/m 19,3 km/h (3 Bft) SW 225 0 min 0,000 mm 0 W/m 5,7 C 0,6 C 37,0 km/h (5 Bft) 100 %
23.02.2017 05:50 7,7 C 7,7 C 7,7 C 87 % 1008,6 hPa 0,0 l/m 19,3 km/h (3 Bft) SW 225 0 min 0,000 mm 0 W/m 5,7 C 0,6 C 37,0 km/h (5 Bft) 100 %
23.02.2017 06:00 7,7 C 7,7 C 7,7 C 87 % 1008,5 hPa 0,0 l/m 17,7 km/h (3 Bft) SW 225 0 min 0,025 mm 0 W/m 5,7 C 1,2 C 37,0 km/h (5 Bft) 100 %
23.02.2017 06:10 7,7 C 7,7 C 7,7 C 86 % 1008,4 hPa 0,0 l/m 20,9 km/h (4 Bft) SW 225 0 min 0,000 mm 0 W/m 5,5 C 0,0 C 46,7 km/h (6 Bft) 100 %
23.02.2017 06:20 7,6 C 7,6 C 7,7 C 86 % 1008,4 hPa 0,0 l/m 16,1 km/h (3 Bft) SW 225 0 min 0,000 mm 0 W/m 5,4 C 1,7 C 32,2 km/h (5 Bft) 100 %
23.02.2017 06:30 7,6 C 7,5 C 7,6 C 86 % 1008,4 hPa 0,0 l/m 20,9 km/h (4 Bft) SW 225 0 min 0,000 mm 0 W/m 5,4 C -0,1 C 43,5 km/h (6 Bft) 100 %
23.02.2017 06:40 7,5 C 7,5 C 7,6 C 85 % 1008,2 hPa 0,0 l/m 19,3 km/h (3 Bft) SW 225 0 min 0,000 mm 0 W/m 5,1 C 0,3 C 40,2 km/h (6 Bft) 100 %
23.02.2017 06:50 7,4 C 7,4 C 7,5 C 85 % 1008,1 hPa 0,0 l/m 19,3 km/h (3 Bft) SW 225 0 min 0,000 mm 0 W/m 5,0 C 0,2 C 38,6 km/h (5 Bft) 100 %
23.02.2017 07:00 7,4 C 7,4 C 7,5 C 84 % 1008,0 hPa 0,0 l/m 17,7 km/h (3 Bft) S-SW 202 0 min 0,025 mm 0 W/m 4,9 C 0,8 C 38,6 km/h (5 Bft) 100 %
23.02.2017 07:10 7,4 C 7,4 C 7,4 C 84 % 1008,0 hPa 0,0 l/m 19,3 km/h (3 Bft) S-SW 202 0 min 0,000 mm 0 W/m 4,9 C 0,2 C 33,8 km/h (5 Bft) 100 %
23.02.2017 07:20 7,4 C 7,4 C 7,4 C 84 % 1007,9 hPa 0,0 l/m 19,3 km/h (3 Bft) SW 225 0 min 0,000 mm 0 W/m 4,9 C 0,2 C 33,8 km/h (5 Bft) 100 %
23.02.2017 07:30 7,4 C 7,4 C 7,4 C 84 % 1007,7 hPa 0,0 l/m 17,7 km/h (3 Bft) SW 225 0 min 0,000 mm 0 W/m 4,9 C 0,8 C 29,0 km/h (5 Bft) 100 %
23.02.2017 07:40 7,4 C 7,3 C 7,4 C 83 % 1007,5 hPa 0,0 l/m 17,7 km/h (3 Bft) S-SW 202 0 min 0,000 mm 7 W/m 4,7 C 0,8 C 37,0 km/h (5 Bft) 100 %
23.02.2017 07:50 7,4 C 7,3 C 7,4 C 83 % 1007,5 hPa 0,0 l/m 17,7 km/h (3 Bft) S-SW 202 0 min 0,000 mm 11 W/m 4,7 C 0,8 C 30,6 km/h (5 Bft) 100 %
23.02.2017 08:00 7,4 C 7,4 C 7,4 C 83 % 1007,4 hPa 0,0 l/m 16,1 km/h (3 Bft) SW 225 0 min 0,025 mm 23 W/m 4,7 C 1,5 C 33,8 km/h (5 Bft) 100 %
23.02.2017 08:10 7,4 C 7,4 C 7,4 C 82 % 1007,4 hPa 0,0 l/m 16,1 km/h (3 Bft) SW 225 0 min 0,000 mm 30 W/m 4,5 C 1,5 C 30,6 km/h (5 Bft) 100 %
23.02.2017 08:20 7,6 C 7,4 C 7,6 C 81 % 1007,3 hPa 0,0 l/m 20,9 km/h (4 Bft) SW 225 0 min 0,000 mm 102 W/m 4,6 C -0,1 C 43,5 km/h (6 Bft) 100 %
23.02.2017 08:30 7,7 C 7,6 C 7,7 C 79 % 1007,0 hPa 0,0 l/m 17,7 km/h (3 Bft) W-SW 247 0 min 0,000 mm 81 W/m 4,3 C 1,2 C 37,0 km/h (5 Bft) 100 %
23.02.2017 08:40 7,7 C 7,7 C 7,7 C 80 % 1006,8 hPa 0,0 l/m 16,1 km/h (3 Bft) W-SW 247 0 min 0,000 mm 70 W/m 4,5 C 1,9 C 37,0 km/h (5 Bft) 100 %
23.02.2017 08:50 7,6 C 7,6 C 7,7 C 81 % 1006,4 hPa 0,0 l/m 9,7 km/h (2 Bft) SW 225 0 min 0,000 mm 114 W/m 4,6 C 5,1 C 27,4 km/h (4 Bft) 100 %
23.02.2017 09:00 7,8 C 7,6 C 7,8 C 81 % 1006,2 hPa 0,0 l/m 16,1 km/h (3 Bft) S-SW 202 10 min 0,076 mm 278 W/m 4,7 C 2,0 C 29,0 km/h (5 Bft) 100 %
23.02.2017 09:10 8,0 C 7,8 C 8,1 C 80 % 1006,1 hPa 0,0 l/m 17,7 km/h (3 Bft) SW 225 10 min 0,000 mm 269 W/m 4,8 C 1,6 C 33,8 km/h (5 Bft) 100 %
23.02.2017 09:20 8,2 C 8,0 C 8,2 C 80 % 1005,9 hPa 0,0 l/m 14,5 km/h (3 Bft) SW 225 10 min 0,000 mm 288 W/m 5,0 C 3,2 C 29,0 km/h (5 Bft) 100 %
23.02.2017 09:30 8,7 C 8,2 C 8,7 C 79 % 1005,9 hPa 0,0 l/m 17,7 km/h (3 Bft) W-SW 247 10 min 0,000 mm 308 W/m 5,3 C 2,4 C 37,0 km/h (5 Bft) 100 %
23.02.2017 09:40 8,8 C 8,7 C 8,8 C 77 % 1005,9 hPa 0,0 l/m 20,9 km/h (4 Bft) W-SW 247 10 min 0,000 mm 318 W/m 5,0 C 1,4 C 43,5 km/h (6 Bft) 100 %
23.02.2017 09:50 8,8 C 8,7 C 8,8 C 78 % 1005,7 hPa 0,0 l/m 16,1 km/h (3 Bft) W-SW 247 10 min 0,000 mm 341 W/m 5,2 C 3,2 C 33,8 km/h (5 Bft) 100 %
23.02.2017 10:00 8,7 C 8,7 C 8,8 C 79 % 1005,6 hPa 0,0 l/m 17,7 km/h (3 Bft) SW 225 10 min 0,152 mm 278 W/m 5,3 C 2,4 C 40,2 km/h (6 Bft) 100 %
23.02.2017 10:10 8,8 C 8,7 C 8,8 C 79 % 1005,3 hPa 0,0 l/m 14,5 km/h (3 Bft) W-SW 247 10 min 0,000 mm 339 W/m 5,4 C 3,9 C 30,6 km/h (5 Bft) 100 %
23.02.2017 10:20 9,1 C 8,8 C 9,1 C 79 % 1005,0 hPa 0,0 l/m 17,7 km/h (3 Bft) W-SW 247 10 min 0,000 mm 388 W/m 5,7 C 2,9 C 35,4 km/h (5 Bft) 100 %
23.02.2017 10:30 9,4 C 9,1 C 9,4 C 79 % 1005,0 hPa 0,0 l/m 14,5 km/h (3 Bft) SW 225 10 min 0,000 mm 432 W/m 5,9 C 4,6 C 25,7 km/h (4 Bft) 100 %
23.02.2017 10:40 9,5 C 9,4 C 9,5 C 77 % 1004,6 hPa 0,0 l/m 14,5 km/h (3 Bft) SW 225 10 min 0,000 mm 338 W/m 5,7 C 4,7 C 29,0 km/h (5 Bft) 100 %
23.02.2017 10:50 9,3 C 9,3 C 9,5 C 78 % 1004,3 hPa 0,0 l/m 12,9 km/h (3 Bft) SW 225 10 min 0,000 mm 246 W/m 5,7 C 5,3 C 24,1 km/h (4 Bft) 100 %
23.02.2017 11:00 9,3 C 9,3 C 9,3 C 78 % 1004,1 hPa 0,0 l/m 12,9 km/h (3 Bft) SW 225 10 min 0,152 mm 264 W/m 5,7 C 5,3 C 25,7 km/h (4 Bft) 100 %
23.02.2017 11:10 9,5 C 9,3 C 9,5 C 79 % 1004,0 hPa 0,0 l/m 16,1 km/h (3 Bft) SW 225 10 min 0,000 mm 404 W/m 6,0 C 4,1 C 29,0 km/h (5 Bft) 100 %
23.02.2017 11:20 10,0 C 9,6 C 10,0 C 79 % 1003,7 hPa 0,0 l/m 16,1 km/h (3 Bft) SW 225 10 min 0,000 mm 624 W/m 6,5 C 4,7 C 32,2 km/h (5 Bft) 100 %
23.02.2017 11:30 10,4 C 10,0 C 10,5 C 76 % 1003,6 hPa 0,0 l/m 19,3 km/h (3 Bft) S-SW 202 10 min 0,000 mm 613 W/m 6,4 C 4,0 C 32,2 km/h (5 Bft) 100 %
23.02.2017 11:40 10,3 C 10,3 C 10,4 C 77 % 1003,4 hPa 0,0 l/m 17,7 km/h (3 Bft) S-SW 202 10 min 0,000 mm 666 W/m 6,4 C 4,5 C 32,2 km/h (5 Bft) 100 %
23.02.2017 11:50 10,4 C 10,3 C 10,4 C 77 % 1003,3 hPa 0,0 l/m 16,1 km/h (3 Bft) SW 225 10 min 0,000 mm 468 W/m 6,5 C 5,2 C 25,7 km/h (4 Bft) 100 %
23.02.2017 12:00 10,2 C 10,2 C 10,4 C 76 % 1003,1 hPa 0,0 l/m 12,9 km/h (3 Bft) S-SW 202 10 min 0,203 mm 211 W/m 6,2 C 6,3 C 27,4 km/h (4 Bft) 91 %
23.02.2017 12:10 10,2 C 10,2 C 10,2 C 76 % 1002,9 hPa 0,0 l/m 14,5 km/h (3 Bft) SW 225 10 min 0,000 mm 262 W/m 6,2 C 5,6 C 32,2 km/h (5 Bft) 100 %
23.02.2017 12:20 10,2 C 10,2 C 10,2 C 77 % 1002,6 hPa 0,0 l/m 11,3 km/h (2 Bft) SW 225 10 min 0,000 mm 267 W/m 6,4 C 7,1 C 35,4 km/h (5 Bft) 100 %
23.02.2017 12:30 10,5 C 10,2 C 10,5 C 75 % 1002,4 hPa 0,0 l/m 11,3 km/h (2 Bft) SW 225 10 min 0,000 mm 267 W/m 6,3 C 7,4 C 32,2 km/h (5 Bft) 100 %
23.02.2017 12:40 10,6 C 10,5 C 10,6 C 76 % 1002,0 hPa 0,0 l/m 9,7 km/h (2 Bft) SW 225 10 min 0,000 mm 257 W/m 6,5 C 8,4 C 24,1 km/h (4 Bft) 100 %
23.02.2017 12:50 11,1 C 10,6 C 11,1 C 74 % 1001,6 hPa 0,0 l/m 12,9 km/h (3 Bft) SW 225 10 min 0,000 mm 499 W/m 6,6 C 7,4 C 30,6 km/h (5 Bft) 100 %
23.02.2017 13:00 11,5 C 11,1 C 11,5 C 74 % 1001,2 hPa 0,0 l/m 11,3 km/h (2 Bft) SW 225 10 min 0,152 mm 327 W/m 7,0 C 8,6 C 24,1 km/h (4 Bft) 100 %
23.02.2017 13:10 11,9 C 11,5 C 11,9 C 71 % 1000,8 hPa 0,0 l/m 14,5 km/h (3 Bft) SW 225 10 min 0,000 mm 446 W/m 6,8 C 7,6 C 32,2 km/h (5 Bft) 100 %
23.02.2017 13:20 12,3 C 11,9 C 12,3 C 69 % 1000,6 hPa 0,0 l/m 14,5 km/h (3 Bft) SW 225 10 min 0,000 mm 279 W/m 6,8 C 8,1 C 32,2 km/h (5 Bft) 100 %
23.02.2017 13:30 12,6 C 12,3 C 12,6 C 67 % 1000,0 hPa 0,0 l/m 19,3 km/h (3 Bft) SW 225 10 min 0,000 mm 323 W/m 6,6 C 6,9 C 33,8 km/h (5 Bft) 100 %
23.02.2017 13:40 12,7 C 12,6 C 12,7 C 67 % 1000,0 hPa 0,0 l/m 14,5 km/h (3 Bft) SW 225 10 min 0,000 mm 225 W/m 6,7 C 8,6 C 33,8 km/h (5 Bft) 100 %
23.02.2017 13:50 13,7 C 12,8 C 13,7 C 67 % 999,7 hPa 0,0 l/m 14,5 km/h (3 Bft) S-SW 202 10 min 0,000 mm 587 W/m 7,7 C 9,8 C 32,2 km/h (5 Bft) 100 %
23.02.2017 14:00 14,6 C 13,7 C 14,6 C 58 % 999,6 hPa 0,0 l/m 20,9 km/h (4 Bft) SW 225 10 min 0,229 mm 550 W/m 6,4 C 9,0 C 41,8 km/h (6 Bft) 100 %
23.02.2017 14:10 15,1 C 14,6 C 15,1 C 55 % 999,4 hPa 0,0 l/m 20,9 km/h (4 Bft) SW 225 10 min 0,000 mm 446 W/m 6,1 C 9,7 C 48,3 km/h (6 Bft) 100 %
23.02.2017 14:20 15,2 C 15,1 C 15,2 C 55 % 999,2 hPa 0,0 l/m 29,0 km/h (5 Bft) S-SW 202 10 min 0,000 mm 492 W/m 6,2 C 8,1 C 53,1 km/h (7 Bft) 100 %
23.02.2017 14:30 15,2 C 15,2 C 15,3 C 55 % 998,9 hPa 0,0 l/m 25,7 km/h (4 Bft) SW 225 10 min 0,000 mm 471 W/m 6,2 C 8,7 C 43,5 km/h (6 Bft) 100 %
23.02.2017 14:40 15,1 C 15,1 C 15,3 C 55 % 998,4 hPa 0,0 l/m 22,5 km/h (4 Bft) SW 225 10 min 0,000 mm 510 W/m 6,1 C 9,3 C 38,6 km/h (5 Bft) 100 %
23.02.2017 14:50 15,7 C 15,1 C 15,7 C 51 % 998,4 hPa 0,0 l/m 25,7 km/h (4 Bft) SW 225 10 min 0,000 mm 473 W/m 5,6 C 9,4 C 41,8 km/h (6 Bft) 100 %
23.02.2017 15:00 15,8 C 15,7 C 15,8 C 52 % 998,0 hPa 0,0 l/m 20,9 km/h (4 Bft) SW 225 10 min 0,305 mm 265 W/m 6,0 C 10,6 C 46,7 km/h (6 Bft) 100 %
23.02.2017 15:10 16,2 C 15,8 C 16,2 C 50 % 998,0 hPa 0,0 l/m 17,7 km/h (3 Bft) W-SW 247 0 min 0,000 mm 79 W/m 5,8 C 11,9 C 38,6 km/h (5 Bft) 100 %
23.02.2017 15:20 16,1 C 16,1 C 16,2 C 51 % 998,0 hPa 0,0 l/m 17,7 km/h (3 Bft) W-SW 247 0 min 0,000 mm 84 W/m 6,0 C 11,7 C 38,6 km/h (5 Bft) 100 %
23.02.2017 15:30 15,9 C 15,9 C 16,1 C 51 % 997,9 hPa 0,0 l/m 17,7 km/h (3 Bft) W-SW 247 0 min 0,000 mm 93 W/m 5,8 C 11,5 C 38,6 km/h (5 Bft) 100 %
23.02.2017 15:40 15,8 C 15,8 C 15,9 C 50 % 998,1 hPa 0,0 l/m 20,9 km/h (4 Bft) W 270 0 min 0,000 mm 109 W/m 5,4 C 10,6 C 45,1 km/h (6 Bft) 100 %
23.02.2017 15:50 15,7 C 15,6 C 15,8 C 46 % 998,0 hPa 0,0 l/m 24,1 km/h (4 Bft) W-SW 247 0 min 0,000 mm 148 W/m 4,1 C 9,7 C 51,5 km/h (7 Bft) 100 %
23.02.2017 16:00 15,5 C 15,5 C 15,7 C 46 % 997,9 hPa 0,0 l/m 24,1 km/h (4 Bft) W-SW 247 0 min 0,178 mm 134 W/m 3,9 C 9,5 C 45,1 km/h (6 Bft) 100 %
23.02.2017 16:10 15,1 C 15,1 C 15,5 C 47 % 997,6 hPa 0,0 l/m 24,1 km/h (4 Bft) W-SW 247 0 min 0,000 mm 125 W/m 3,9 C 8,9 C 48,3 km/h (6 Bft) 100 %
23.02.2017 16:20 14,5 C 14,5 C 15,1 C 49 % 997,5 hPa 0,0 l/m 17,7 km/h (3 Bft) W-SW 247 0 min 0,000 mm 105 W/m 3,9 C 9,7 C 41,8 km/h (6 Bft) 100 %
23.02.2017 16:30 14,2 C 14,1 C 14,5 C 50 % 997,3 hPa 0,0 l/m 20,9 km/h (4 Bft) W-SW 247 0 min 0,000 mm 114 W/m 3,9 C 8,5 C 43,5 km/h (6 Bft) 100 %
23.02.2017 16:40 13,9 C 13,9 C 14,1 C 50 % 997,1 hPa 0,0 l/m 19,3 km/h (3 Bft) W-SW 247 0 min 0,000 mm 67 W/m 3,7 C 8,5 C 49,9 km/h (6 Bft) 100 %
23.02.2017 17:00 13,4 C 13,4 C 14,1 C 52 % 997,4 hPa 0,0 l/m 21,3 km/h (4 Bft) W 278 0 min 0,157 mm 56 W/m 3,7 C 7,3 C 51,5 km/h (7 Bft) 97 %
23.02.2017 17:10 13,3 C 13,3 C 13,5 C 52 % 997,5 hPa 0,0 l/m 21,8 km/h (4 Bft) W-SW 239 0 min 0,000 mm 30 W/m 3,7 C 7,1 C 48,3 km/h (6 Bft) 97 %
23.02.2017 17:20 13,2 C 13,1 C 13,3 C 53 % 997,5 hPa 0,0 l/m 21,4 km/h (4 Bft) W 263 0 min 0,000 mm 11 W/m 3,8 C 7,0 C 54,7 km/h (7 Bft) 97 %
23.02.2017 17:30 13,1 C 13,1 C 13,2 C 53 % 997,5 hPa 0,0 l/m 28,2 km/h (4 Bft) W 265 0 min 0,000 mm 9 W/m 3,7 C 5,4 C 56,3 km/h (7 Bft) 98 %
23.02.2017 17:40 13,0 C 13,0 C 13,1 C 54 % 997,7 hPa 0,0 l/m 30,1 km/h (5 Bft) W-SW 238 0 min 0,000 mm 0 W/m 3,9 C 4,9 C 53,1 km/h (7 Bft) 97 %
23.02.2017 17:50 12,8 C 12,8 C 13,0 C 56 % 997,8 hPa 0,0 l/m 20,4 km/h (4 Bft) SW 228 0 min 0,000 mm 0 W/m 4,2 C 6,8 C 46,7 km/h (6 Bft) 97 %
23.02.2017 18:00 12,3 C 12,3 C 12,8 C 61 % 998,3 hPa 0,0 l/m 29,0 km/h (5 Bft) W-NW 300 0 min 0,127 mm 0 W/m 5,0 C 4,1 C 61,2 km/h (7 Bft) 97 %
23.02.2017 18:10 11,9 C 11,9 C 12,3 C 64 % 998,4 hPa 0,0 l/m 25,2 km/h (4 Bft) W 279 0 min 0,000 mm 0 W/m 5,3 C 4,4 C 49,9 km/h (6 Bft) 98 %
23.02.2017 18:20 11,2 C 11,2 C 11,9 C 69 % 998,5 hPa 0,0 l/m 29,5 km/h (5 Bft) SW 230 0 min 0,000 mm 0 W/m 5,7 C 2,4 C 54,7 km/h (7 Bft) 97 %
23.02.2017 18:30 10,8 C 10,8 C 11,2 C 71 % 998,5 hPa 0,0 l/m 28,3 km/h (4 Bft) SW 214 0 min 0,000 mm 0 W/m 5,8 C 2,1 C 53,1 km/h (7 Bft) 97 %
23.02.2017 18:40 10,7 C 10,7 C 10,8 C 71 % 998,8 hPa 0,0 l/m 27,8 km/h (4 Bft) S-SW 213 0 min 0,000 mm 0 W/m 5,7 C 2,1 C 54,7 km/h (7 Bft) 98 %
23.02.2017 18:50 10,6 C 10,6 C 10,7 C 71 % 998,7 hPa 0,0 l/m 25,4 km/h (4 Bft) W-SW 256 0 min 0,000 mm 0 W/m 5,6 C 2,5 C 57,9 km/h (7 Bft) 97 %
23.02.2017 19:00 10,4 C 10,4 C 10,6 C 72 % 998,9 hPa 0,0 l/m 27,6 km/h (4 Bft) SW 229 0 min 0,076 mm 0 W/m 5,6 C 1,7 C 53,1 km/h (7 Bft) 97 %
23.02.2017 19:10 10,3 C 10,3 C 10,4 C 74 % 998,7 hPa 0,0 l/m 26,9 km/h (4 Bft) W-SW 257 0 min 0,000 mm 0 W/m 5,9 C 1,8 C 53,1 km/h (7 Bft) 98 %
23.02.2017 19:20 10,1 C 10,1 C 10,3 C 75 % 998,4 hPa 0,0 l/m 22,5 km/h (4 Bft) W-SW 240 0 min 0,000 mm 0 W/m 5,9 C 2,7 C 46,7 km/h (6 Bft) 97 %
23.02.2017 19:30 10,0 C 10,0 C 10,1 C 76 % 998,4 hPa 0,0 l/m 28,9 km/h (5 Bft) S-SW 202 0 min 0,000 mm 0 W/m 6,0 C 0,9 C 53,1 km/h (7 Bft) 98 %
23.02.2017 19:40 9,9 C 9,9 C 10,0 C 76 % 998,2 hPa 0,0 l/m 24,7 km/h (4 Bft) W 262 0 min 0,000 mm 0 W/m 5,9 C 1,8 C 53,1 km/h (7 Bft) 97 %
23.02.2017 19:50 9,9 C 9,8 C 9,9 C 76 % 998,4 hPa 0,0 l/m 28,3 km/h (4 Bft) W-SW 254 0 min 0,000 mm 0 W/m 5,9 C 0,9 C 57,9 km/h (7 Bft) 98 %
23.02.2017 20:00 10,0 C 9,9 C 10,0 C 75 % 998,5 hPa 0,0 l/m 26,3 km/h (4 Bft) S-SW 200 0 min 0,076 mm 0 W/m 5,8 C 1,5 C 56,3 km/h (7 Bft) 97 %
23.02.2017 20:10 10,0 C 9,9 C 10,0 C 75 % 998,6 hPa 0,0 l/m 22,8 km/h (4 Bft) W-SW 245 0 min 0,000 mm 0 W/m 5,8 C 2,4 C 51,5 km/h (7 Bft) 98 %
23.02.2017 20:20 9,9 C 9,9 C 10,0 C 75 % 998,9 hPa 0,0 l/m 25,4 km/h (4 Bft) W 261 0 min 0,000 mm 0 W/m 5,7 C 1,6 C 51,5 km/h (7 Bft) 97 %
23.02.2017 20:30 9,6 C 9,6 C 9,9 C 78 % 998,5 hPa 0,0 l/m 24,1 km/h (4 Bft) NW 309 0 min 0,000 mm 0 W/m 6,0 C 1,5 C 64,4 km/h (8 Bft) 97 %
23.02.2017 20:40 9,2 C 9,2 C 9,6 C 81 % 998,7 hPa 0,0 l/m 21,1 km/h (4 Bft) W-SW 242 0 min 0,000 mm 0 W/m 6,1 C 1,9 C 48,3 km/h (6 Bft) 96 %
23.02.2017 20:50 8,8 C 8,8 C 9,2 C 83 % 998,9 hPa 0,2 l/m 18,7 km/h (3 Bft) W-SW 255 0 min 0,000 mm 0 W/m 6,1 C 2,2 C 35,4 km/h (5 Bft) 89 %
23.02.2017 21:00 8,6 C 8,6 C 8,8 C 83 % 999,0 hPa 0,0 l/m 16,2 km/h (3 Bft) W-SW 258 0 min 0,051 mm 0 W/m 5,9 C 2,9 C 41,8 km/h (6 Bft) 98 %
23.02.2017 21:10 8,6 C 8,5 C 8,6 C 82 % 998,9 hPa 0,0 l/m 12,9 km/h (3 Bft) W 270 0 min 0,000 mm 0 W/m 5,7 C 4,4 C 37,0 km/h (5 Bft) 99 %
23.02.2017 21:20 8,7 C 8,6 C 8,7 C 79 % 999,2 hPa 0,0 l/m 19,3 km/h (3 Bft) W-SW 247 0 min 0,000 mm 0 W/m 5,3 C 1,9 C 33,8 km/h (5 Bft) 100 %
23.02.2017 21:30 8,5 C 8,5 C 8,7 C 78 % 999,2 hPa 0,0 l/m 24,1 km/h (4 Bft) W-NW 292 0 min 0,000 mm 0 W/m 4,9 C 0,1 C 46,7 km/h (6 Bft) 100 %
23.02.2017 21:40 7,8 C 7,8 C 8,5 C 79 % 999,5 hPa 0,0 l/m 17,7 km/h (3 Bft) W-NW 292 0 min 0,000 mm 0 W/m 4,4 C 1,3 C 35,4 km/h (5 Bft) 100 %
23.02.2017 21:50 7,6 C 7,6 C 7,8 C 80 % 999,4 hPa 0,0 l/m 14,5 km/h (3 Bft) W-NW 292 0 min 0,000 mm 0 W/m 4,4 C 2,5 C 33,8 km/h (5 Bft) 100 %
23.02.2017 22:00 7,7 C 7,6 C 7,7 C 78 % 999,5 hPa 0,0 l/m 19,3 km/h (3 Bft) W 270 0 min 0,025 mm 0 W/m 4,1 C 0,6 C 35,4 km/h (5 Bft) 100 %
23.02.2017 22:10 7,7 C 7,7 C 7,7 C 77 % 999,3 hPa 0,0 l/m 14,5 km/h (3 Bft) W 270 0 min 0,000 mm 0 W/m 3,9 C 2,6 C 29,0 km/h (5 Bft) 100 %
23.02.2017 22:20 7,8 C 7,7 C 7,8 C 76 % 999,3 hPa 0,0 l/m 14,5 km/h (3 Bft) W 270 0 min 0,000 mm 0 W/m 3,8 C 2,7 C 35,4 km/h (5 Bft) 100 %
23.02.2017 22:30 7,9 C 7,8 C 7,9 C 75 % 999,5 hPa 0,0 l/m 17,7 km/h (3 Bft) W-SW 247 0 min 0,000 mm 0 W/m 3,7 C 1,4 C 43,5 km/h (6 Bft) 100 %
23.02.2017 22:40 7,9 C 7,8 C 7,9 C 74 % 999,5 hPa 0,0 l/m 16,1 km/h (3 Bft) SW 225 0 min 0,000 mm 0 W/m 3,6 C 2,1 C 37,0 km/h (5 Bft) 100 %
23.02.2017 22:50 8,0 C 7,9 C 8,0 C 72 % 999,4 hPa 0,0 l/m 17,7 km/h (3 Bft) W-SW 247 0 min 0,000 mm 0 W/m 3,3 C 1,6 C 37,0 km/h (5 Bft) 100 %
23.02.2017 23:00 8,2 C 8,0 C 8,2 C 70 % 999,4 hPa 0,0 l/m 24,1 km/h (4 Bft) W-SW 247 0 min 0,051 mm 0 W/m 3,1 C -0,3 C 46,7 km/h (6 Bft) 100 %
23.02.2017 23:10 8,2 C 8,2 C 8,2 C 70 % 999,8 hPa 0,0 l/m 22,5 km/h (4 Bft) W 270 0 min 0,000 mm 0 W/m 3,1 C 0,1 C 46,7 km/h (6 Bft) 100 %
23.02.2017 23:20 8,1 C 8,1 C 8,2 C 69 % 999,8 hPa 0,0 l/m 24,1 km/h (4 Bft) W 270 0 min 0,000 mm 0 W/m 2,8 C -0,5 C 45,1 km/h (6 Bft) 100 %
23.02.2017 23:30 7,9 C 7,9 C 8,1 C 69 % 999,9 hPa 0,0 l/m 20,9 km/h (4 Bft) W 270 0 min 0,000 mm 0 W/m 2,6 C 0,3 C 46,7 km/h (6 Bft) 100 %
23.02.2017 23:40 7,8 C 7,8 C 7,9 C 70 % 1000,2 hPa 0,0 l/m 17,7 km/h (3 Bft) W 270 0 min 0,000 mm 0 W/m 2,7 C 1,3 C 38,6 km/h (5 Bft) 100 %
23.02.2017 23:50 7,4 C 7,4 C 7,8 C 71 % 1000,1 hPa 0,0 l/m 25,7 km/h (4 Bft) W 270 0 min 0,000 mm 0 W/m 2,5 C -1,9 C 54,7 km/h (7 Bft) 100 %
_ Min-Zeit 07:40 07:40 07:10 15:50 16:40 - 08:50 - - - - - 23:50 23:50 10:50 20:50
Minimum _ 7,3 C 7,3 C 7,4 C 46 % 997,1 hPa - 9,7 km/h (2 Bft) - - - - - 2,5 C -1,9 C 24,1 km/h (4 Bft) 89 %
_ Max-Zeit 15:10 15:20 15:10 00:00 00:10 20:50 17:40 - - 09:00 15:00 11:40 13:50 15:10 20:30 00:10
Maximum _ 16,2 C 16,1 C 16,2 C 88 % 1010,6 hPa 0,2 l/m 30,1 km/h
W-SW (5 Bft)
- - 10 min 0,305 mm 666 W/m 7,7 C 11,9 C 64,4 km/h
W-SW (8 Bft)
100 %
Durchschnitt _ 9,7 C 9,6 C 9,8 C 76 % 1003,6 hPa #0,2 l/m 19,1 km/h (3 Bft) SW - #6:10 h #2,235 mm 265 W/m 5,4 C 3,4 C 39,7 km/h (6 Bft) 99 %
PRIVATE WETTERSTATION BILLIGHEIM-ALLFELD - www.neckar-odenwald-wetter.de - Holger Sonntag